iso_date,epoch_date,Year,Hour,Min,DOY,POS_DOY,Lat,Lon,BP,Ts,Ta,has_bp,has_ts,has_ta,BuoyID,Buoy_Type,Buoy_Owner,Logistics,Hemisphere
2018-08-10T19:00:28Z,1533927629,2018,19,0,222.792,222.792,53.743,-147.881,1023.3,12.79,-999.0,yes,yes,no,300234062857970,BD2GI,AOML,UNKNOWN,North
2018-08-10T19:59:31Z,1533931171,2018,20,0,222.833,222.833,53.74,-147.878,1023.7,12.8,-999.0,yes,yes,no,300234062857970,BD2GI,AOML,UNKNOWN,North
2018-08-10T21:00:00Z,1533934800,2018,21,0,222.875,222.875,53.739,-147.877,1023.8,12.81,-999.0,yes,yes,no,300234062857970,BD2GI,AOML,UNKNOWN,North
2018-08-10T22:00:28Z,1533938429,2018,22,0,222.917,222.917,53.74,-147.876,1024.0,12.83,-999.0,yes,yes,no,300234062857970,BD2GI,AOML,UNKNOWN,North
2018-08-10T22:59:31Z,1533941971,2018,23,0,222.958,222.958,53.744,-147.879,1024.2,12.87,-999.0,yes,yes,no,300234062857970,BD2GI,AOML,UNKNOWN,North
2018-08-11T00:00:00Z,1533945600,2018,0,0,223.0,223.0,53.749,-147.88,1024.5,12.89,-999.0,yes,yes,no,300234062857970,BD2GI,AOML,UNKNOWN,North
2018-08-11T01:00:28Z,1533949229,2018,1,0,223.042,223.042,53.751,-147.874,1024.8,12.9,-999.0,yes,yes,no,300234062857970,BD2GI,AOML,UNKNOWN,North
2018-08-11T01:59:31Z,1533952771,2018,2,0,223.083,223.083,53.75,-147.867,1024.8,12.92,-999.0,yes,yes,no,300234062857970,BD2GI,AOML,UNKNOWN,North
2018-08-11T03:00:00Z,1533956400,2018,3,0,223.125,223.125,53.75,-147.86,1025.2,12.92,-999.0,yes,yes,no,300234062857970,BD2GI,AOML,UNKNOWN,North
2018-08-11T04:00:28Z,1533960029,2018,4,0,223.167,223.167,53.753,-147.852,1025.3,12.92,-999.0,yes,yes,no,300234062857970,BD2GI,AOML,UNKNOWN,North
2018-08-11T04:59:31Z,1533963571,2018,5,0,223.208,223.208,53.755,-147.843,1025.4,12.91,-999.0,yes,yes,no,300234062857970,BD2GI,AOML,UNKNOWN,North
2018-08-11T06:00:00Z,1533967200,2018,6,0,223.25,223.25,53.754,-147.832,1025.8,12.9,-999.0,yes,yes,no,300234062857970,BD2GI,AOML,UNKNOWN,North
2018-08-11T07:00:28Z,1533970829,2018,7,0,223.292,223.292,53.752,-147.822,1026.0,12.89,-999.0,yes,yes,no,300234062857970,BD2GI,AOML,UNKNOWN,North
2018-08-11T07:59:31Z,1533974371,2018,8,0,223.333,223.333,53.75,-147.815,1026.1,12.89,-999.0,yes,yes,no,300234062857970,BD2GI,AOML,UNKNOWN,North
2018-08-11T09:00:00Z,1533978000,2018,9,0,223.375,223.375,53.748,-147.809,1026.3,12.88,-999.0,yes,yes,no,300234062857970,BD2GI,AOML,UNKNOWN,North
2018-08-11T10:00:28Z,1533981629,2018,10,0,223.417,223.417,53.744,-147.807,1026.4,12.87,-999.0,yes,yes,no,300234062857970,BD2GI,AOML,UNKNOWN,North
2018-08-11T10:59:31Z,1533985171,2018,11,0,223.458,223.458,53.744,-147.812,1026.3,12.86,-999.0,yes,yes,no,300234062857970,BD2GI,AOML,UNKNOWN,North
2018-08-11T12:00:00Z,1533988800,2018,12,0,223.5,223.5,53.746,-147.813,1026.5,12.86,-999.0,yes,yes,no,300234062857970,BD2GI,AOML,UNKNOWN,North
2018-08-11T13:00:28Z,1533992429,2018,13,0,223.542,223.542,53.748,-147.812,1026.3,12.86,-999.0,yes,yes,no,300234062857970,BD2GI,AOML,UNKNOWN,North
2018-08-11T13:59:31Z,1533995971,2018,14,0,223.583,223.583,53.748,-147.807,1026.8,12.85,-999.0,yes,yes,no,300234062857970,BD2GI,AOML,UNKNOWN,North
2018-08-11T15:00:00Z,1533999600,2018,15,0,223.625,223.625,53.748,-147.801,1026.9,12.84,-999.0,yes,yes,no,300234062857970,BD2GI,AOML,UNKNOWN,North
2018-08-11T16:00:28Z,1534003229,2018,16,0,223.667,223.667,53.751,-147.791,1027.4,12.83,-999.0,yes,yes,no,300234062857970,BD2GI,AOML,UNKNOWN,North
2018-08-11T16:59:31Z,1534006771,2018,17,0,223.708,223.708,53.753,-147.777,1027.5,12.83,-999.0,yes,yes,no,300234062857970,BD2GI,AOML,UNKNOWN,North
2018-08-11T18:00:00Z,1534010400,2018,18,0,223.75,223.75,53.755,-147.764,1027.8,12.83,-999.0,yes,yes,no,300234062857970,BD2GI,AOML,UNKNOWN,North
2018-08-11T19:00:28Z,1534014029,2018,19,0,223.792,223.792,53.753,-147.749,1028.0,12.84,-999.0,yes,yes,no,300234062857970,BD2GI,AOML,UNKNOWN,North
2018-08-11T19:59:31Z,1534017571,2018,20,0,223.833,223.833,53.749,-147.737,1028.2,12.86,-999.0,yes,yes,no,300234062857970,BD2GI,AOML,UNKNOWN,North
2018-08-11T21:00:00Z,1534021200,2018,21,0,223.875,223.875,53.745,-147.73,1028.0,12.87,-999.0,yes,yes,no,300234062857970,BD2GI,AOML,UNKNOWN,North
2018-08-11T22:00:28Z,1534024829,2018,22,0,223.917,223.917,53.742,-147.727,1028.1,12.89,-999.0,yes,yes,no,300234062857970,BD2GI,AOML,UNKNOWN,North
2018-08-11T22:59:31Z,1534028371,2018,23,0,223.958,223.958,53.741,-147.73,1028.0,12.89,-999.0,yes,yes,no,300234062857970,BD2GI,AOML,UNKNOWN,North
2018-08-12T00:00:00Z,1534032000,2018,0,0,224.0,224.0,53.74,-147.734,1028.1,12.91,-999.0,yes,yes,no,300234062857970,BD2GI,AOML,UNKNOWN,North
2018-08-12T01:00:28Z,1534035629,2018,1,0,224.042,224.042,53.744,-147.734,1027.7,12.92,-999.0,yes,yes,no,300234062857970,BD2GI,AOML,UNKNOWN,North
2018-08-12T01:59:31Z,1534039171,2018,2,0,224.083,224.083,53.746,-147.729,1027.9,12.93,-999.0,yes,yes,no,300234062857970,BD2GI,AOML,UNKNOWN,North
2018-08-12T03:00:00Z,1534042800,2018,3,0,224.125,224.125,53.747,-147.721,1027.9,12.92,-999.0,yes,yes,no,300234062857970,BD2GI,AOML,UNKNOWN,North
2018-08-12T04:00:28Z,1534046429,2018,4,0,224.167,224.167,53.749,-147.711,1028.0,12.92,-999.0,yes,yes,no,300234062857970,BD2GI,AOML,UNKNOWN,North
2018-08-12T04:59:31Z,1534049971,2018,5,0,224.208,224.208,53.75,-147.701,1028.2,12.91,-999.0,yes,yes,no,300234062857970,BD2GI,AOML,UNKNOWN,North
2018-08-12T06:00:00Z,1534053600,2018,6,0,224.25,224.25,53.75,-147.695,1028.3,12.91,-999.0,yes,yes,no,300234062857970,BD2GI,AOML,UNKNOWN,North
2018-08-12T07:00:28Z,1534057229,2018,7,0,224.292,224.292,53.75,-147.687,1028.5,12.9,-999.0,yes,yes,no,300234062857970,BD2GI,AOML,UNKNOWN,North
2018-08-12T07:59:31Z,1534060771,2018,8,0,224.333,224.333,53.749,-147.678,1028.1,12.9,-999.0,yes,yes,no,300234062857970,BD2GI,AOML,UNKNOWN,North
2018-08-12T09:00:00Z,1534064400,2018,9,0,224.375,224.375,53.748,-147.673,1028.5,12.9,-999.0,yes,yes,no,300234062857970,BD2GI,AOML,UNKNOWN,North
2018-08-12T10:00:28Z,1534068029,2018,10,0,224.417,224.417,53.748,-147.673,1028.3,12.89,-999.0,yes,yes,no,300234062857970,BD2GI,AOML,UNKNOWN,North
2018-08-12T10:59:31Z,1534071571,2018,11,0,224.458,224.458,53.744,-147.668,1028.1,12.89,-999.0,yes,yes,no,300234062857970,BD2GI,AOML,UNKNOWN,North
2018-08-12T12:00:00Z,1534075200,2018,12,0,224.5,224.5,53.744,-147.67,1028.1,12.88,-999.0,yes,yes,no,300234062857970,BD2GI,AOML,UNKNOWN,North
2018-08-12T13:00:28Z,1534078829,2018,13,0,224.542,224.542,53.744,-147.67,1027.5,12.87,-999.0,yes,yes,no,300234062857970,BD2GI,AOML,UNKNOWN,North
2018-08-12T13:59:31Z,1534082371,2018,14,0,224.583,224.583,53.749,-147.668,1027.3,12.86,-999.0,yes,yes,no,300234062857970,BD2GI,AOML,UNKNOWN,North
2018-08-12T15:00:00Z,1534086000,2018,15,0,224.625,224.625,53.752,-147.66,1027.3,12.85,-999.0,yes,yes,no,300234062857970,BD2GI,AOML,UNKNOWN,North
2018-08-12T16:00:28Z,1534089629,2018,16,0,224.667,224.667,53.757,-147.647,1027.4,12.85,-999.0,yes,yes,no,300234062857970,BD2GI,AOML,UNKNOWN,North
2018-08-12T16:59:31Z,1534093171,2018,17,0,224.708,224.708,53.76,-147.63,1027.8,12.85,-999.0,yes,yes,no,300234062857970,BD2GI,AOML,UNKNOWN,North
2018-08-12T18:00:00Z,1534096800,2018,18,0,224.75,224.75,53.76,-147.614,1027.3,12.86,-999.0,yes,yes,no,300234062857970,BD2GI,AOML,UNKNOWN,North
2018-08-12T19:00:28Z,1534100429,2018,19,0,224.792,224.792,53.758,-147.604,1026.8,12.86,-999.0,yes,yes,no,300234062857970,BD2GI,AOML,UNKNOWN,North
2018-08-12T19:59:31Z,1534103971,2018,20,0,224.833,224.833,53.759,-147.593,1026.2,12.87,-999.0,yes,yes,no,300234062857970,BD2GI,AOML,UNKNOWN,North
2018-08-12T21:00:00Z,1534107600,2018,21,0,224.875,224.875,53.76,-147.583,1026.2,12.87,-999.0,yes,yes,no,300234062857970,BD2GI,AOML,UNKNOWN,North
2018-08-12T22:00:28Z,1534111229,2018,22,0,224.917,224.917,53.761,-147.573,1025.5,12.89,-999.0,yes,yes,no,300234062857970,BD2GI,AOML,UNKNOWN,North
2018-08-12T22:59:31Z,1534114771,2018,23,0,224.958,224.958,53.761,-147.566,1025.0,12.89,-999.0,yes,yes,no,300234062857970,BD2GI,AOML,UNKNOWN,North
2018-08-13T00:00:00Z,1534118400,2018,0,0,225.0,225.0,53.762,-147.563,1024.8,12.89,-999.0,yes,yes,no,300234062857970,BD2GI,AOML,UNKNOWN,North
2018-08-13T01:00:28Z,1534122029,2018,1,0,225.042,225.042,53.763,-147.558,1024.5,12.87,-999.0,yes,yes,no,300234062857970,BD2GI,AOML,UNKNOWN,North
2018-08-13T01:59:31Z,1534125571,2018,2,0,225.083,225.083,53.764,-147.55,1023.6,12.88,-999.0,yes,yes,no,300234062857970,BD2GI,AOML,UNKNOWN,North
2018-08-13T03:00:00Z,1534129200,2018,3,0,225.125,225.125,53.765,-147.541,1023.0,12.87,-999.0,yes,yes,no,300234062857970,BD2GI,AOML,UNKNOWN,North
2018-08-13T04:00:28Z,1534132829,2018,4,0,225.167,225.167,53.77,-147.532,1022.7,12.85,-999.0,yes,yes,no,300234062857970,BD2GI,AOML,UNKNOWN,North
2018-08-13T04:59:31Z,1534136371,2018,5,0,225.208,225.208,53.774,-147.521,1022.3,12.84,-999.0,yes,yes,no,300234062857970,BD2GI,AOML,UNKNOWN,North
2018-08-13T06:00:00Z,1534140000,2018,6,0,225.25,225.25,53.776,-147.506,1021.7,12.82,-999.0,yes,yes,no,300234062857970,BD2GI,AOML,UNKNOWN,North
2018-08-13T07:00:28Z,1534143629,2018,7,0,225.292,225.292,53.775,-147.489,1021.4,12.79,-999.0,yes,yes,no,300234062857970,BD2GI,AOML,UNKNOWN,North
2018-08-13T07:59:31Z,1534147171,2018,8,0,225.333,225.333,53.774,-147.474,1020.6,12.77,-999.0,yes,yes,no,300234062857970,BD2GI,AOML,UNKNOWN,North
2018-08-13T09:00:00Z,1534150800,2018,9,0,225.375,225.375,53.773,-147.468,1020.0,12.76,-999.0,yes,yes,no,300234062857970,BD2GI,AOML,UNKNOWN,North
2018-08-13T10:00:28Z,1534154429,2018,10,0,225.417,225.417,53.773,-147.468,1019.1,12.76,-999.0,yes,yes,no,300234062857970,BD2GI,AOML,UNKNOWN,North
2018-08-13T10:59:31Z,1534157971,2018,11,0,225.458,225.458,53.777,-147.46,1018.5,12.74,-999.0,yes,yes,no,300234062857970,BD2GI,AOML,UNKNOWN,North
2018-08-13T12:00:00Z,1534161600,2018,12,0,225.5,225.5,53.783,-147.451,1017.8,12.72,-999.0,yes,yes,no,300234062857970,BD2GI,AOML,UNKNOWN,North
2018-08-13T13:00:28Z,1534165229,2018,13,0,225.542,225.542,53.783,-147.451,1017.4,12.7,-999.0,yes,yes,no,300234062857970,BD2GI,AOML,UNKNOWN,North
2018-08-13T13:59:31Z,1534168771,2018,14,0,225.583,225.583,53.783,-147.451,1016.6,12.7,-999.0,yes,yes,no,300234062857970,BD2GI,AOML,UNKNOWN,North
2018-08-13T15:00:00Z,1534172400,2018,15,0,225.625,225.625,53.785,-147.41,1016.4,12.66,-999.0,yes,yes,no,300234062857970,BD2GI,AOML,UNKNOWN,North
2018-08-13T16:00:28Z,1534176029,2018,16,0,225.667,225.667,53.782,-147.394,1016.2,12.64,-999.0,yes,yes,no,300234062857970,BD2GI,AOML,UNKNOWN,North
2018-08-13T16:59:31Z,1534179571,2018,17,0,225.708,225.708,53.781,-147.38,1016.0,12.6,-999.0,yes,yes,no,300234062857970,BD2GI,AOML,UNKNOWN,North
2018-08-13T18:00:00Z,1534183200,2018,18,0,225.75,225.75,53.777,-147.371,1015.9,12.6,-999.0,yes,yes,no,300234062857970,BD2GI,AOML,UNKNOWN,North
2018-08-13T19:00:28Z,1534186829,2018,19,0,225.792,225.792,53.773,-147.365,1016.0,12.59,-999.0,yes,yes,no,300234062857970,BD2GI,AOML,UNKNOWN,North
2018-08-13T19:59:31Z,1534190371,2018,20,0,225.833,225.833,53.77,-147.364,1015.9,12.59,-999.0,yes,yes,no,300234062857970,BD2GI,AOML,UNKNOWN,North
2018-08-13T21:00:00Z,1534194000,2018,21,0,225.875,225.875,53.768,-147.365,1016.3,12.61,-999.0,yes,yes,no,300234062857970,BD2GI,AOML,UNKNOWN,North
2018-08-13T22:00:28Z,1534197629,2018,22,0,225.917,225.917,53.769,-147.367,1016.9,12.63,-999.0,yes,yes,no,300234062857970,BD2GI,AOML,UNKNOWN,North
2018-08-13T22:59:31Z,1534201171,2018,23,0,225.958,225.958,53.773,-147.368,1017.2,12.62,-999.0,yes,yes,no,300234062857970,BD2GI,AOML,UNKNOWN,North
2018-08-14T00:00:00Z,1534204800,2018,0,0,226.0,226.0,53.778,-147.366,1017.7,12.62,-999.0,yes,yes,no,300234062857970,BD2GI,AOML,UNKNOWN,North
2018-08-14T01:00:28Z,1534208429,2018,1,0,226.042,226.042,53.78,-147.362,1018.0,12.63,-999.0,yes,yes,no,300234062857970,BD2GI,AOML,UNKNOWN,North
2018-08-14T01:59:31Z,1534211971,2018,2,0,226.083,226.083,53.779,-147.36,1018.4,12.63,-999.0,yes,yes,no,300234062857970,BD2GI,AOML,UNKNOWN,North
2018-08-14T03:00:00Z,1534215600,2018,3,0,226.125,226.125,53.779,-147.359,1018.9,12.62,-999.0,yes,yes,no,300234062857970,BD2GI,AOML,UNKNOWN,North
2018-08-14T04:00:28Z,1534219229,2018,4,0,226.167,226.167,53.779,-147.356,1018.9,12.62,-999.0,yes,yes,no,300234062857970,BD2GI,AOML,UNKNOWN,North
2018-08-14T04:59:31Z,1534222771,2018,5,0,226.208,226.208,53.781,-147.351,1019.3,12.61,-999.0,yes,yes,no,300234062857970,BD2GI,AOML,UNKNOWN,North
2018-08-14T06:00:00Z,1534226400,2018,6,0,226.25,226.25,53.781,-147.346,1019.7,12.6,-999.0,yes,yes,no,300234062857970,BD2GI,AOML,UNKNOWN,North
2018-08-14T07:00:28Z,1534230029,2018,7,0,226.292,226.292,53.782,-147.341,1019.9,12.6,-999.0,yes,yes,no,300234062857970,BD2GI,AOML,UNKNOWN,North
2018-08-14T07:59:31Z,1534233571,2018,8,0,226.333,226.333,53.781,-147.34,1020.0,12.6,-999.0,yes,yes,no,300234062857970,BD2GI,AOML,UNKNOWN,North
2018-08-14T09:00:00Z,1534237200,2018,9,0,226.375,226.375,53.781,-147.34,1020.2,12.59,-999.0,yes,yes,no,300234062857970,BD2GI,AOML,UNKNOWN,North
2018-08-14T10:00:28Z,1534240829,2018,10,0,226.417,226.417,53.783,-147.339,1020.2,12.58,-999.0,yes,yes,no,300234062857970,BD2GI,AOML,UNKNOWN,North
2018-08-14T10:59:31Z,1534244371,2018,11,0,226.458,226.458,53.787,-147.332,1020.2,12.57,-999.0,yes,yes,no,300234062857970,BD2GI,AOML,UNKNOWN,North
2018-08-14T12:00:00Z,1534248000,2018,12,0,226.5,226.5,53.789,-147.329,1020.0,12.56,-999.0,yes,yes,no,300234062857970,BD2GI,AOML,UNKNOWN,North
2018-08-14T13:00:28Z,1534251629,2018,13,0,226.542,226.542,53.788,-147.325,1020.3,12.55,-999.0,yes,yes,no,300234062857970,BD2GI,AOML,UNKNOWN,North
2018-08-14T13:59:31Z,1534255171,2018,14,0,226.583,226.583,53.787,-147.322,1020.4,12.54,-999.0,yes,yes,no,300234062857970,BD2GI,AOML,UNKNOWN,North
2018-08-14T15:00:00Z,1534258800,2018,15,0,226.625,226.625,53.787,-147.322,1020.7,12.53,-999.0,yes,yes,no,300234062857970,BD2GI,AOML,UNKNOWN,North
2018-08-14T16:00:28Z,1534262429,2018,16,0,226.667,226.667,53.785,-147.321,1021.2,12.53,-999.0,yes,yes,no,300234062857970,BD2GI,AOML,UNKNOWN,North
2018-08-14T16:59:31Z,1534265971,2018,17,0,226.708,226.708,53.787,-147.321,1021.5,12.54,-999.0,yes,yes,no,300234062857970,BD2GI,AOML,UNKNOWN,North
2018-08-14T18:00:00Z,1534269600,2018,18,0,226.75,226.75,53.789,-147.321,1021.6,12.54,-999.0,yes,yes,no,300234062857970,BD2GI,AOML,UNKNOWN,North
2018-08-14T19:00:28Z,1534273229,2018,19,0,226.792,226.792,53.79,-147.32,1021.8,12.57,-999.0,yes,yes,no,300234062857970,BD2GI,AOML,UNKNOWN,North
2018-08-14T19:59:31Z,1534276771,2018,20,0,226.833,226.833,53.794,-147.32,1021.9,12.6,-999.0,yes,yes,no,300234062857970,BD2GI,AOML,UNKNOWN,North
2018-08-14T21:00:00Z,1534280400,2018,21,0,226.875,226.875,53.798,-147.318,1022.0,12.63,-999.0,yes,yes,no,300234062857970,BD2GI,AOML,UNKNOWN,North
2018-08-14T22:00:28Z,1534284029,2018,22,0,226.917,226.917,53.805,-147.317,1022.0,12.67,-999.0,yes,yes,no,300234062857970,BD2GI,AOML,UNKNOWN,North
2018-08-14T22:59:31Z,1534287571,2018,23,0,226.958,226.958,53.811,-147.311,1021.9,12.71,-999.0,yes,yes,no,300234062857970,BD2GI,AOML,UNKNOWN,North
2018-08-15T00:00:00Z,1534291200,2018,0,0,227.0,227.0,53.816,-147.303,1021.7,12.72,-999.0,yes,yes,no,300234062857970,BD2GI,AOML,UNKNOWN,North
2018-08-15T01:00:28Z,1534294829,2018,1,0,227.042,227.042,53.818,-147.296,1021.3,12.74,-999.0,yes,yes,no,300234062857970,BD2GI,AOML,UNKNOWN,North
2018-08-15T01:59:31Z,1534298371,2018,2,0,227.083,227.083,53.816,-147.289,1021.2,12.74,-999.0,yes,yes,no,300234062857970,BD2GI,AOML,UNKNOWN,North
2018-08-15T03:00:00Z,1534302000,2018,3,0,227.125,227.125,53.812,-147.283,1021.2,12.74,-999.0,yes,yes,no,300234062857970,BD2GI,AOML,UNKNOWN,North
2018-08-15T04:00:28Z,1534305629,2018,4,0,227.167,227.167,53.812,-147.279,1021.1,12.72,-999.0,yes,yes,no,300234062857970,BD2GI,AOML,UNKNOWN,North
2018-08-15T04:59:31Z,1534309171,2018,5,0,227.208,227.208,53.81,-147.278,1021.0,12.71,-999.0,yes,yes,no,300234062857970,BD2GI,AOML,UNKNOWN,North
2018-08-15T06:00:00Z,1534312800,2018,6,0,227.25,227.25,53.808,-147.283,1021.2,12.7,-999.0,yes,yes,no,300234062857970,BD2GI,AOML,UNKNOWN,North
2018-08-15T07:00:28Z,1534316429,2018,7,0,227.292,227.292,53.806,-147.29,1021.3,12.69,-999.0,yes,yes,no,300234062857970,BD2GI,AOML,UNKNOWN,North
2018-08-15T07:59:31Z,1534319971,2018,8,0,227.333,227.333,53.808,-147.298,1021.0,12.68,-999.0,yes,yes,no,300234062857970,BD2GI,AOML,UNKNOWN,North
2018-08-15T09:00:00Z,1534323600,2018,9,0,227.375,227.375,53.814,-147.305,1021.2,12.68,-999.0,yes,yes,no,300234062857970,BD2GI,AOML,UNKNOWN,North
2018-08-15T10:00:28Z,1534327229,2018,10,0,227.417,227.417,53.823,-147.31,1021.0,12.67,-999.0,yes,yes,no,300234062857970,BD2GI,AOML,UNKNOWN,North
2018-08-15T10:59:31Z,1534330771,2018,11,0,227.458,227.458,53.833,-147.311,1020.7,12.66,-999.0,yes,yes,no,300234062857970,BD2GI,AOML,UNKNOWN,North
2018-08-15T12:00:00Z,1534334400,2018,12,0,227.5,227.5,53.842,-147.308,1020.3,12.65,-999.0,yes,yes,no,300234062857970,BD2GI,AOML,UNKNOWN,North
2018-08-15T13:00:28Z,1534338029,2018,13,0,227.542,227.542,53.85,-147.297,1020.1,12.64,-999.0,yes,yes,no,300234062857970,BD2GI,AOML,UNKNOWN,North
2018-08-15T13:59:31Z,1534341571,2018,14,0,227.583,227.583,53.855,-147.281,1019.9,12.64,-999.0,yes,yes,no,300234062857970,BD2GI,AOML,UNKNOWN,North
2018-08-15T15:00:00Z,1534345200,2018,15,0,227.625,227.625,53.856,-147.263,1019.8,12.63,-999.0,yes,yes,no,300234062857970,BD2GI,AOML,UNKNOWN,North
2018-08-15T16:00:28Z,1534348829,2018,16,0,227.667,227.667,53.853,-147.251,1020.0,12.62,-999.0,yes,yes,no,300234062857970,BD2GI,AOML,UNKNOWN,North
2018-08-15T16:59:31Z,1534352371,2018,17,0,227.708,227.708,53.847,-147.249,1020.1,12.62,-999.0,yes,yes,no,300234062857970,BD2GI,AOML,UNKNOWN,North
2018-08-15T18:00:00Z,1534356000,2018,18,0,227.75,227.75,53.844,-147.248,1020.2,12.62,-999.0,yes,yes,no,300234062857970,BD2GI,AOML,UNKNOWN,North
2018-08-15T19:00:28Z,1534359629,2018,19,0,227.792,227.792,53.841,-147.248,1020.2,12.62,-999.0,yes,yes,no,300234062857970,BD2GI,AOML,UNKNOWN,North
2018-08-15T19:59:31Z,1534363171,2018,20,0,227.833,227.833,53.839,-147.253,1020.0,12.62,-999.0,yes,yes,no,300234062857970,BD2GI,AOML,UNKNOWN,North
2018-08-15T21:00:00Z,1534366800,2018,21,0,227.875,227.875,53.84,-147.264,1019.9,12.62,-999.0,yes,yes,no,300234062857970,BD2GI,AOML,UNKNOWN,North
2018-08-15T22:00:28Z,1534370429,2018,22,0,227.917,227.917,53.843,-147.274,1019.7,12.65,-999.0,yes,yes,no,300234062857970,BD2GI,AOML,UNKNOWN,North
2018-08-15T22:59:31Z,1534373971,2018,23,0,227.958,227.958,53.852,-147.284,1019.5,12.66,-999.0,yes,yes,no,300234062857970,BD2GI,AOML,UNKNOWN,North
2018-08-16T00:00:00Z,1534377600,2018,0,0,228.0,228.0,53.865,-147.289,1019.2,12.7,-999.0,yes,yes,no,300234062857970,BD2GI,AOML,UNKNOWN,North
2018-08-16T01:00:28Z,1534381229,2018,1,0,228.042,228.042,53.877,-147.283,1018.7,12.75,-999.0,yes,yes,no,300234062857970,BD2GI,AOML,UNKNOWN,North
2018-08-16T01:59:31Z,1534384771,2018,2,0,228.083,228.083,53.886,-147.27,1018.4,12.8,-999.0,yes,yes,no,300234062857970,BD2GI,AOML,UNKNOWN,North
2018-08-16T03:00:00Z,1534388400,2018,3,0,228.125,228.125,53.891,-147.26,1018.4,12.82,-999.0,yes,yes,no,300234062857970,BD2GI,AOML,UNKNOWN,North
2018-08-16T04:00:28Z,1534392029,2018,4,0,228.167,228.167,53.893,-147.249,1018.4,12.81,-999.0,yes,yes,no,300234062857970,BD2GI,AOML,UNKNOWN,North
2018-08-16T04:59:31Z,1534395571,2018,5,0,228.208,228.208,53.89,-147.239,1018.6,12.79,-999.0,yes,yes,no,300234062857970,BD2GI,AOML,UNKNOWN,North
2018-08-16T06:00:00Z,1534399200,2018,6,0,228.25,228.25,53.886,-147.231,1018.6,12.77,-999.0,yes,yes,no,300234062857970,BD2GI,AOML,UNKNOWN,North
2018-08-16T07:00:28Z,1534402829,2018,7,0,228.292,228.292,53.883,-147.228,1018.7,12.74,-999.0,yes,yes,no,300234062857970,BD2GI,AOML,UNKNOWN,North
2018-08-16T07:59:31Z,1534406371,2018,8,0,228.333,228.333,53.88,-147.232,1018.7,12.72,-999.0,yes,yes,no,300234062857970,BD2GI,AOML,UNKNOWN,North
2018-08-16T09:00:00Z,1534410000,2018,9,0,228.375,228.375,53.878,-147.238,1018.5,12.71,-999.0,yes,yes,no,300234062857970,BD2GI,AOML,UNKNOWN,North
2018-08-16T10:00:28Z,1534413629,2018,10,0,228.417,228.417,53.877,-147.247,1018.6,12.7,-999.0,yes,yes,no,300234062857970,BD2GI,AOML,UNKNOWN,North
2018-08-16T10:59:31Z,1534417171,2018,11,0,228.458,228.458,53.879,-147.256,1018.3,12.68,-999.0,yes,yes,no,300234062857970,BD2GI,AOML,UNKNOWN,North
2018-08-16T12:00:00Z,1534420800,2018,12,0,228.5,228.5,53.886,-147.267,1018.3,12.68,-999.0,yes,yes,no,300234062857970,BD2GI,AOML,UNKNOWN,North
2018-08-16T13:00:28Z,1534424429,2018,13,0,228.542,228.542,53.898,-147.275,1018.2,12.68,-999.0,yes,yes,no,300234062857970,BD2GI,AOML,UNKNOWN,North
2018-08-16T13:59:31Z,1534427971,2018,14,0,228.583,228.583,53.907,-147.275,1018.2,12.67,-999.0,yes,yes,no,300234062857970,BD2GI,AOML,UNKNOWN,North
2018-08-16T15:00:00Z,1534431600,2018,15,0,228.625,228.625,53.914,-147.267,1018.6,12.66,-999.0,yes,yes,no,300234062857970,BD2GI,AOML,UNKNOWN,North
2018-08-16T16:00:28Z,1534435229,2018,16,0,228.667,228.667,53.921,-147.258,1018.7,12.66,-999.0,yes,yes,no,300234062857970,BD2GI,AOML,UNKNOWN,North
2018-08-16T16:59:31Z,1534438771,2018,17,0,228.708,228.708,53.926,-147.25,1019.2,12.67,-999.0,yes,yes,no,300234062857970,BD2GI,AOML,UNKNOWN,North
2018-08-16T18:00:00Z,1534442400,2018,18,0,228.75,228.75,53.925,-147.239,1019.1,12.69,-999.0,yes,yes,no,300234062857970,BD2GI,AOML,UNKNOWN,North
2018-08-16T19:00:28Z,1534446029,2018,19,0,228.792,228.792,53.925,-147.231,1019.5,12.86,-999.0,yes,yes,no,300234062857970,BD2GI,AOML,UNKNOWN,North
2018-08-16T19:59:31Z,1534449571,2018,20,0,228.833,228.833,53.923,-147.227,1019.8,12.84,-999.0,yes,yes,no,300234062857970,BD2GI,AOML,UNKNOWN,North
2018-08-16T21:00:00Z,1534453200,2018,21,0,228.875,228.875,53.921,-147.223,1019.8,12.97,-999.0,yes,yes,no,300234062857970,BD2GI,AOML,UNKNOWN,North
2018-08-16T22:00:28Z,1534456829,2018,22,0,228.917,228.917,53.919,-147.224,1019.9,12.97,-999.0,yes,yes,no,300234062857970,BD2GI,AOML,UNKNOWN,North
2018-08-16T22:59:31Z,1534460371,2018,23,0,228.958,228.958,53.917,-147.233,1020.3,12.93,-999.0,yes,yes,no,300234062857970,BD2GI,AOML,UNKNOWN,North
2018-08-17T00:00:00Z,1534464000,2018,0,0,229.0,229.0,53.918,-147.244,1020.4,12.93,-999.0,yes,yes,no,300234062857970,BD2GI,AOML,UNKNOWN,North
2018-08-17T01:00:28Z,1534467629,2018,1,0,229.042,229.042,53.922,-147.252,1020.6,12.97,-999.0,yes,yes,no,300234062857970,BD2GI,AOML,UNKNOWN,North
2018-08-17T01:59:31Z,1534471171,2018,2,0,229.083,229.083,53.927,-147.261,1020.5,12.96,-999.0,yes,yes,no,300234062857970,BD2GI,AOML,UNKNOWN,North
2018-08-17T03:00:00Z,1534474800,2018,3,0,229.125,229.125,53.936,-147.263,1020.5,12.94,-999.0,yes,yes,no,300234062857970,BD2GI,AOML,UNKNOWN,North
2018-08-17T04:00:28Z,1534478429,2018,4,0,229.167,229.167,53.944,-147.26,1020.8,12.94,-999.0,yes,yes,no,300234062857970,BD2GI,AOML,UNKNOWN,North
2018-08-17T04:59:31Z,1534481971,2018,5,0,229.208,229.208,53.951,-147.258,1021.3,12.91,-999.0,yes,yes,no,300234062857970,BD2GI,AOML,UNKNOWN,North
2018-08-17T06:00:00Z,1534485600,2018,6,0,229.25,229.25,53.955,-147.253,1021.5,12.88,-999.0,yes,yes,no,300234062857970,BD2GI,AOML,UNKNOWN,North
2018-08-17T07:00:28Z,1534489229,2018,7,0,229.292,229.292,53.956,-147.248,1021.8,12.85,-999.0,yes,yes,no,300234062857970,BD2GI,AOML,UNKNOWN,North
2018-08-17T07:59:31Z,1534492771,2018,8,0,229.333,229.333,53.958,-147.243,1022.1,12.82,-999.0,yes,yes,no,300234062857970,BD2GI,AOML,UNKNOWN,North
2018-08-17T09:00:00Z,1534496400,2018,9,0,229.375,229.375,53.959,-147.238,1022.1,12.81,-999.0,yes,yes,no,300234062857970,BD2GI,AOML,UNKNOWN,North
2018-08-17T10:00:28Z,1534500029,2018,10,0,229.417,229.417,53.961,-147.235,1022.1,12.79,-999.0,yes,yes,no,300234062857970,BD2GI,AOML,UNKNOWN,North
2018-08-17T10:59:31Z,1534503571,2018,11,0,229.458,229.458,53.963,-147.236,1021.9,12.76,-999.0,yes,yes,no,300234062857970,BD2GI,AOML,UNKNOWN,North
2018-08-17T12:00:00Z,1534507200,2018,12,0,229.5,229.5,53.964,-147.238,1021.8,12.76,-999.0,yes,yes,no,300234062857970,BD2GI,AOML,UNKNOWN,North
2018-08-17T13:00:28Z,1534510829,2018,13,0,229.542,229.542,53.965,-147.241,1021.5,12.76,-999.0,yes,yes,no,300234062857970,BD2GI,AOML,UNKNOWN,North
2018-08-17T13:59:31Z,1534514371,2018,14,0,229.583,229.583,53.967,-147.245,1021.4,12.75,-999.0,yes,yes,no,300234062857970,BD2GI,AOML,UNKNOWN,North